Location: Ellingshausen
(50.5460°N, 10.4723°E)
Time: 22:38:09
(UTC+00:00)

Cosmos 2278 Rocket - Pass Details

Date: 18 January 2026
Orbit: 839 x 846 km, 71.0° (Epoch: 7 February)

Event Time Altitude Azimuth Distance (km) Brightness Sun altitude
Exits shadow 04:14:30 12° 186° (S) 2,327 4.4 -27.4°
Maximum altitude 04:19:36 53° 112° (ESE) 1,024 2.9 -26.6°
Drops below altitude 10° 04:25:06 10° 37° (NE) 2,471 5.0 -25.7°
Sets 04:27:36 0° 33° (NNE) 3,411 5.8 -25.3°
